Regional Weather Roundup
Issued by NWS San Angelo, TX

Home | Current Version | Previous Version | Text Only | Print | Product List | Glossary On
Versions: 1 2 3 4 5 6 7 8 9 10 11 12 13 14 15 16 17 18 19 20 21 22 23 24 25 26 27 28 29 30 31 32 33 34 35 36 37 38 39 40 41 42 43 44 45 46 47 48 49 50
000
ASUS44 KSJT 272310
RWRSJT
WEST CENTRAL TEXAS REGIONAL WEATHER ROUNDUP
NATIONAL WEATHER SERVICE SAN ANGELO TX
600 PM CDT THU JUL 27 2017

NOTE: "FAIR" INDICATES FEW OR NO CLOUDS BELOW 12,000 FEET WITH NO
SIGNIFICANT WEATHER AND/OR OBSTRUCTIONS TO VISIBILITY.

TXZ049-054-064>066-071>073-076>078-098-099-113-114-127-128-139-140-
154-155-168>170-280000
...LOCATIONS ACROSS WEST CENTRAL TEXAS...

CITY           SKY/WX    TMP DP  RH WIND       PRES   REMARKS
SAN ANGELO     SUNNY     99  55  23 S10G21    29.95F
ABILENE        CLOUDY    98  58  26 SE12      29.94F
DYESS AFB      MOSUNNY  100  60  26 S8G20     29.92F
JUNCTION       SUNNY     96  59  29 SE8G18    29.96F
SWEETWATER     SUNNY     96  53  23 SE10      29.99F
BROWNWOOD      RAIN      99  55  23 SE5       29.94F
COLEMAN        CLEAR     99  54  22 CALM      29.95F
SONORA         SUNNY     95  57  28 S10G16    30.01F
OZONA          FAIR      97  54  23 SE17      30.01F
BRADY          NOT AVBL
$$

TEXAS PANHANDLE/OKLAHOMA PANHANDLE

CITY           SKY/WX    TMP DP  RH WIND       PRES   REMARKS
AMARILLO       PTSUNNY   92  59  33 VRB6G17   30.05F
BORGER         CLOUDY    88  68  51 E14       30.04F
CANADIAN       MOSUNNY   86  71  60 N20G26    30.00R
DALHART        SUNNY     86  63  45 SE7       30.11F
DUMAS          MOCLDY    83  64  52 NE5       30.09S
GUYMON         NOT AVBL
HEREFORD       PTCLDY    90  63  40 CALM      30.06F
PAMPA          CLOUDY    76  72  87 NE18      30.07F
PERRYTON       CLOUDY    72  69  88 E6        30.05F
$$

SOUTHERN PANHANDLE/SOUTH PLAINS/ROLLING PLAINS

CITY           SKY/WX    TMP DP  RH WIND       PRES   REMARKS
LUBBOCK        PTSUNNY   95  52  23 S13       30.00F
SNYDER         SUNNY     97  56  26 SE9G17    29.97F
CHILDRESS      MOSUNNY   98  59  27 S8        29.92F
SEMINOLE       CLEAR     96  49  19 S13       30.00F
$$

PERMIAN BASIN

CITY           SKY/WX    TMP DP  RH WIND       PRES   REMARKS
MIDLAND        SUNNY     97  54  23 SE17      29.97F
ODESSA         SUNNY     97  51  21 S13       29.99F
WINK           MOSUNNY   98  52  21 E15G23    29.93F
$$

FAR WEST/SOUTHWEST MOUNTAINS/TRANS PECOS

CITY           SKY/WX    TMP DP  RH WIND       PRES   REMARKS
ALPINE         PTCLDY    88  56  33 E15       30.13F
DRYDEN           N/A     95  59  30 SE15G28   29.93F
EL PASO        CLOUDY    76  62  62 E12       30.06R
FORT STOCKTON  SUNNY     95  55  26 SE18G24   29.97F
GUADALUPE PASS SUNNY     86  54  33 E21G29    30.13F
MARFA          SUNNY     88  53  30 E6        30.10F
PECOS          CLEAR    101  55  21 E18G24    29.91F
$$

DALLAS/FORT WORTH METROPLEX

CITY           SKY/WX    TMP DP  RH WIND       PRES   REMARKS
DFW AIRPORT    PTSUNNY   98  65  33 S10       29.89F
FTW MEACHAM    CLOUDY    99  66  33 S7        29.89F
DAL-EXECUTIVE  CLOUDY    97  67  37 S6        29.90F
GRAND PRAIRIE  SUNNY     99  61  28 S7        29.91F
ADDISON        SUNNY    N/A N/A N/A SW6       29.91F
MESQUITE       CLEAR     97  64  34 SE9       29.91F
LANCASTER      PTCLDY    98  66  34 S10G16    29.92F
$$

NORTH CENTRAL TEXAS

CITY           SKY/WX    TMP DP  RH WIND       PRES   REMARKS
SHRMAN/DENISON CLOUDY    94  71  46 S9        29.91F
GAINESVILLE    CLOUDY    94  71  45 SE9       29.93F
BRIDGEPORT     MOCLDY    96  66  36 SE8       29.92F
DENTON         CLOUDY    97  71  42 SE13      29.90F
WAXAHACHIE     MOCLDY    98  66  35 S12       29.93F
GRANBURY       CLOUDY   101  59  24 SE10G16   29.91F
$$

WESTERN NORTH TEXAS

CITY           SKY/WX    TMP DP  RH WIND       PRES   REMARKS
WICHITA FALLS  CLOUDY    99  62  29 S7        29.87F
VERNON         MOCLDY   101  51  19 S10G17    29.89F
BRECKENRIDGE   CLEAR    100  57  23 SE13G18   29.91F
COMANCHE       MOSUNNY   97  61  30 S6        29.95F
$$

CENTRAL AND SOUTH CENTRAL TEXAS

CITY           SKY/WX    TMP DP  RH WIND       PRES   REMARKS
AUSTIN/BERGSTM MOSUNNY   99  66  33 S12       29.92F
WACO           SUNNY    100  64  30 SE9       29.91F
HILLSBORO      PTCLDY    98  65  33 S8        29.93S
TEMPLE         SUNNY     99  65  32 SE8G18    29.93F
KILLEEN-GRAY   MOSUNNY   99  68  36 SE8       29.93F
FORT HOOD      SUNNY     98  64  32 SE9       29.91F
GEORGETOWN     SUNNY     98  64  32 S7        29.95F
LAGO VISTA     FAIR      98  61  29 SE9G17    29.97F
SAN MARCOS     MOSUNNY   99  57  25 SE14      29.94F
NEW BRAUNFELS  MOSUNNY  100  65  31 SE13G20   29.92F
RANDOLPH AFB   MOSUNNY   95  63  34 SE10      29.93F
SAN ANTONIO    MOSUNNY   98  64  32 SE10G24   29.94F
STINSON        SUNNY    100  62  28 SE10G21   29.90F
PLEASANTON     NOT AVBL
LA GRANGE      SUNNY     97  73  45 S13       29.92F
GIDDINGS       PTCLDY    98  65  33 S7        29.94F
$$

EAST TEXAS

CITY           SKY/WX    TMP DP  RH WIND       PRES   REMARKS
PARIS          MOSUNNY   92  73  53 SW10      29.92F
CLARKSVILLE    NOT AVBL
TYLER          CLOUDY    94  70  45 S10       29.94F
LONGVIEW       MOSUNNY   92  75  57 SW7       29.93F
PALESTINE      CLEAR     96  69  41 S8        29.95F
NACOGDOCHES    MOSUNNY   91  73  55 SW7       29.93F
$$

TEXAS HILL COUNTRY AND EDWARDS PLATEAU

CITY           SKY/WX    TMP DP  RH WIND       PRES   REMARKS
LLANO          CLEAR     97  64  34 S6        29.97F
HORSESHOE BAY  FAIR      99  59  26 S10       29.95F
KERRVILLE      MOSUNNY   96  66  37 SE10      29.98F
FREDERICKSBRG  SUNNY     94  58  29 S8        29.98F
ROCKSPRINGS    NOT AVBL
HONDO          SUNNY    101  62  27 S9        29.92F
UVALDE         PTCLDY    99  62  29 S13G22    29.91F
DEL RIO        SUNNY    100  59  25 SE14G24   29.88F
$$

SOUTHEAST TEXAS

CITY           SKY/WX    TMP DP  RH WIND       PRES   REMARKS
COLLEGE STN    SUNNY     99  68  36 SE13      29.93F
CALDWELL       NOT AVBL
CROCKETT       PTCLDY    95  72  46 CALM      29.97F
BRENHAM        CLOUDY    96  68  40 SE6       29.94F
HUNTSVILLE     SUNNY     96  66  37 S7        29.95F
CONROE         SUNNY     95  69  42 SE7       29.95F
HOUSTON BUSH   MOSUNNY   91  73  55 SE20      29.96S
HOUSTON HOBBY  CLOUDY    90  72  55 N9        29.96S THUNDER
PERLAND        SUNNY     95  71  45 S10       29.98S
WHARTON        CLEAR     93  67  42 S12       29.96S
$$

THE UPPER TEXAS COAST

CITY           SKY/WX    TMP DP  RH WIND       PRES   REMARKS
ORANGE         CLEAR     91  76  61 SW13      30.00S
PORT ARTHUR    PTSUNNY   92  75  57 S5        29.99R THUNDER
GALVESTON      MOSUNNY   88  77  69 S12       29.99F
ANGLETON       SUNNY     92  74  55 S13       29.97F
BAY CITY       CLEAR     91  76  60 S12       29.96F
$$

TEXAS COASTAL BEND, RIO GRANDE PLAINS DEEP SOUTH TEXAS

CITY           SKY/WX    TMP DP  RH WIND       PRES   REMARKS
VICTORIA       SUNNY     96  63  33 S14       29.95F
BEEVILLE       FAIR      97  67  37 SE15      29.93F
ROCKPORT       SUNNY     90  73  57 SE10      29.96F
PORT ARANSAS   CLEAR     87  74  63 SE12      29.96F
PORT LAVACA    CLEAR     90  72  55 SE13      29.96F
CORPUS CHRISTI MOSUNNY   92  70  48 SE13G21   29.95F
KINGSVILLE NAS MOSUNNY   94  71  47 SE20      29.93F
COTULLA        PTSUNNY  101  58  24 SE20G25   29.88F
LAREDO         MOSUNNY  100  64  30 SE18G28   29.88F
BROWNSVILLE    SUNNY     89  74  60 SE16      29.96F
PORT ISABEL    SUNNY     90  75  61 SE16      29.95F
HEBBRONVILLE   CLEAR     97  59  28 SE15      29.93F
MCALLEN        MOSUNNY   98  67  36 SE20G26   29.92F
WESLACO        PTSUNNY   94  68  42 SE12G22   29.92S
FALFURRIAS     CLEAR     94  70  45 SE12G18   29.92F
EDINBURG       CLEAR     98  64  32 SE16G23   29.92F
$$



USA.gov is the U.S. government's official web portal to all federal, state and local government web resources and services.